Volver al catálogo

COSMOS 1051

ActivoMilitarLEO
NORAD 11128·PAYLOAD·🇷🇺 Russia

Lanzado Dec 5, 1978 desde Plesetsk Cosmodrome

Loading…

Próximos Pases (próximas 24 horas)

TLE

ActualizadoSource: Space-Track

Época: Sep 14, 2026, 13:46 UTC

1 11128U 78109A   26257.57406272 -.00000010  00000-0  39577-4 0  9990
2 11128  74.0157 293.9129 0059060 253.8936 274.6682 12.55968454190341

Sigue COSMOS 1051 en tiempo real con AllMySat

Download on the App Store